Location: Cabeza de los Veneras
(40.2000°N, 5.2000°W)
Time: 11:48:19
(UTC+00:00)

Cosmos 1605 Rocket - Pass Details

Date: 18 April 2024
Orbit: 944 x 1005 km, 82.9° (Epoch: 21 May)

Event Time Altitude Azimuth Distance (km) Brightness Sun altitude
Rises 21:08:44 0° 355° (N) 3,737 7.7 -22.2°
Reaches altitude 10° 21:11:19 10° 359° (N) 2,779 6.9 -22.6°
Maximum altitude 21:17:40 65° 80° (E) 1,085 4.0 -23.5°
Enters shadow 21:19:11 50° 136° (SE) 1,243 4.1 -23.7°
